Regional Weather Roundup
Issued by NWS

Home | Current Version | Previous Version | Graphics & Text | Print | Product List | Glossary On
Versions: 1 2 3 4 5 6 7 8 9 10 11 12 13 14 15 16 17 18 19 20 21 22 23 24 25 26 27 28 29 30 31 32 33 34 35 36 37 38 39 40 41 42 43 44 45 46 47 48 49 50
000
ASUS43 KLMK 300710
RWRKY
KENTUCKY REGIONAL WEATHER ROUNDUP
NATIONAL WEATHER SERVICE LOUISVILLE KY
300 AM EDT SAT MAY 30 2015

NOTE "FAIR" INDICATES FEW OR NO CLOUDS BELOW 12,000 FEET
WITH NO SIGNIFICANT WEATHER AND/OR OBSTRUCTIONS TO VISIBILITY.

KYZ001>023-026-027-061>063-070>075-300800-
WESTERN AND SOUTH CENTRAL KENTUCKY

CITY           SKY/WX    TMP DP  RH WIND       PRES   REMARKS
PADUCAH        MOCLDY    73  68  84 S5        30.00S
HENDERSON      CLEAR     72  66  83 S7        30.01F
OWENSBORO      CLEAR     70  68  93 SE5       30.04S
HOPKINSVILLE   NOT AVBL
BOWLING GREEN  MOCLDY    71  66  84 SE3       30.07S
GLASGOW        MOCLDY    69  63  80 S3        30.08S
$$

KYZ024-025-028>034-038-045-046-053-300800-
NORTH CENTRAL KENTUCKY

CITY           SKY/WX    TMP DP  RH WIND       PRES   REMARKS
LOUISVILLE/SDF CLOUDY    74  67  78 S6        30.05S
LOUISVILLE/LOU PTCLDY    72  67  84 S3        30.06S
FORT KNOX      MOCLDY    71  66  85 S7        30.05F
$$

KYZ035>037-039>044-047>052-055>060-089>105-300800-
NORTHEAST KENTUCKY

CITY           SKY/WX    TMP DP  RH WIND       PRES   REMARKS
LEXINGTON      PTCLDY    68  64  87 S8        30.10F
COVINGTON      PTCLDY    69  65  86 S7        30.07S
FRANKFORT        N/A     69  64  84 MISG      30.07F
$$

KYZ054-064>069-076>088-106>120-300800-
SOUTHEAST KENTUCKY

CITY           SKY/WX    TMP DP  RH WIND       PRES   REMARKS
JACKSON        CLEAR     67  62  84 VRB3      30.14F
LONDON         CLOUDY    67  62  84 CALM      30.14S
SOMERSET       MOCLDY    68  64  88 CALM      30.13F
MIDDLESBORO    CLOUDY    65  64  99 CALM      30.16F
MONTICELLO     PTSUNNY   70  67  90 S6        30.14F
$$




USA.gov is the U.S. government's official web portal to all federal, state and local government web resources and services.